GOES 16

operational
NORAD ID: 41866 Int'l Des: 2016-071 Owner: NOAA Country: US
HEOCIRCULARGSO

About GOES 16

Description loading...

Live Position

Loading 3D Globe...

Upcoming Passes

Altitude History

Altitude vs Time

uPlot chart will show altitude changes over time

Two-Line Element Set

1 41866U 16071A 26061.15982338 -.00000108 00000-0 00000+0 0 9993
2 41866 0.1416 90.3224 0002623 215.5429 166.9069 1.00271557 34035
Epoch: Mar 2, 2026 • Age: 29 hours

Current Status

Altitude 35797.2 km
Velocity 3.07 km/s
Sub-Earth Point 0.08°N, 104.69°W
Launch Date Nov 19, 2016
Age 9.2 years
Type weather

Technical Details

Classification Payload
Mass 5192.00 kg
Dry Mass 2857.00 kg
Total Mass 5192.00 kg
Length 6.10 m
Diameter 3.90 m
Span 12.00 m
Shape Box + panel + boom
Manufacturer LMCSS
Bus Type A2100
Phase Status In Orbit
Owner/State NOAA/US

Large Constellations

Loading constellations...